Time,TemperatureF,DewpointF,PressureIn,WindDirection,WindDirectionDegrees,WindSpeedMPH,WindSpeedGustMPH,Humidity,HourlyPrecipIn,Conditions,Clouds,dailyrainin,SoftwareType,DateUTC
2013-06-03 00:00:00,36.0,29.0,-100.00,North,-999,-999.0,-999.0,77,0.00,,,-99.99,,2013-06-03 07:00:00,
2013-06-03 00:52:00,36.0,29.0,-100.00,North,-999,-999.0,-999.0,77,0.00,,,-99.99,,2013-06-03 07:52:00,
2013-06-03 01:00:00,36.0,28.0,-100.00,North,-999,-999.0,-999.0,73,0.00,,,-99.99,,2013-06-03 08:00:00,
2013-06-03 01:52:00,36.0,28.0,-100.00,North,-999,-999.0,-999.0,73,0.00,,,-99.99,,2013-06-03 08:52:00,
2013-06-03 02:00:00,35.0,28.0,-100.00,North,-999,-999.0,-999.0,74,0.00,,,-99.99,,2013-06-03 09:00:00,
2013-06-03 02:53:00,35.0,28.0,-100.00,North,-999,-999.0,-999.0,74,0.00,,,-99.99,,2013-06-03 09:53:00,
2013-06-03 03:00:00,35.0,28.0,-100.00,North,-999,-999.0,-999.0,76,0.00,,,-99.99,,2013-06-03 10:00:00,
2013-06-03 03:52:00,35.0,28.0,-100.00,North,-999,-999.0,-999.0,76,0.00,,,-99.99,,2013-06-03 10:52:00,
2013-06-03 04:00:00,36.0,27.0,-100.00,North,-999,-999.0,-999.0,69,0.00,,,-99.99,,2013-06-03 11:00:00,
2013-06-03 04:52:00,36.0,27.0,-100.00,North,-999,-999.0,-999.0,69,0.00,,,-99.99,,2013-06-03 11:52:00,
2013-06-03 05:00:00,36.0,28.0,-100.00,North,-999,-999.0,-999.0,72,0.00,,,-99.99,,2013-06-03 12:00:00,
2013-06-03 05:52:00,36.0,28.0,-100.00,North,-999,-999.0,-999.0,72,0.00,,,-99.99,,2013-06-03 12:52:00,
2013-06-03 06:00:00,37.0,27.0,-100.00,North,-999,-999.0,-999.0,68,0.00,,,-99.99,,2013-06-03 13:00:00,
2013-06-03 06:52:00,37.0,27.0,-100.00,North,-999,-999.0,-999.0,68,0.00,,,-99.99,,2013-06-03 13:52:00,
2013-06-03 07:00:00,42.0,28.0,-100.00,North,-999,-999.0,-999.0,57,0.00,,,-99.99,,2013-06-03 14:00:00,
2013-06-03 07:52:00,42.0,28.0,-100.00,North,-999,-999.0,-999.0,57,0.00,,,-99.99,,2013-06-03 14:52:00,
2013-06-03 08:00:00,45.0,32.0,-100.00,North,-999,-999.0,-999.0,59,0.00,,,-99.99,,2013-06-03 15:00:00,
2013-06-03 08:53:00,45.0,32.0,-100.00,North,-999,-999.0,-999.0,59,0.00,,,-99.99,,2013-06-03 15:53:00,
2013-06-03 09:00:00,49.0,34.0,-100.00,North,-999,-999.0,-999.0,55,0.00,,,-99.99,,2013-06-03 16:00:00,
2013-06-03 09:53:00,49.0,34.0,-100.00,North,-999,-999.0,-999.0,55,0.00,,,-99.99,,2013-06-03 16:53:00,
2013-06-03 10:00:00,51.0,36.0,-100.00,North,-999,-999.0,-999.0,56,0.00,,,-99.99,,2013-06-03 17:00:00,
2013-06-03 10:52:00,51.0,36.0,-100.00,North,-999,-999.0,-999.0,56,0.00,,,-99.99,,2013-06-03 17:52:00,
2013-06-03 11:00:00,53.0,35.0,-100.00,North,-999,-999.0,-999.0,50,0.00,,,-99.99,,2013-06-03 18:00:00,
2013-06-03 11:52:00,53.0,35.0,-100.00,North,-999,-999.0,-999.0,50,0.00,,,-99.99,,2013-06-03 18:52:00,
2013-06-03 12:00:00,56.0,36.0,-100.00,North,-999,-999.0,-999.0,47,0.00,,,-99.99,,2013-06-03 19:00:00,
2013-06-03 12:52:00,56.0,36.0,-100.00,North,-999,-999.0,-999.0,47,0.00,,,-99.99,,2013-06-03 19:52:00,
2013-06-03 13:00:00,58.0,38.0,-100.00,North,-999,-999.0,-999.0,48,0.00,,,-99.99,,2013-06-03 20:00:00,
2013-06-03 13:52:00,58.0,38.0,-100.00,North,-999,-999.0,-999.0,48,0.00,,,-99.99,,2013-06-03 20:52:00,
2013-06-03 14:00:00,61.0,37.0,-100.00,North,-999,-999.0,-999.0,41,0.00,,,-99.99,,2013-06-03 21:00:00,
2013-06-03 14:53:00,61.0,37.0,-100.00,North,-999,-999.0,-999.0,41,0.00,,,-99.99,,2013-06-03 21:53:00,
2013-06-03 15:00:00,61.0,35.0,-100.00,North,-999,-999.0,-999.0,38,0.00,,,-99.99,,2013-06-03 22:00:00,
2013-06-03 15:53:00,61.0,35.0,-100.00,North,-999,-999.0,-999.0,38,0.00,,,-99.99,,2013-06-03 22:53:00,
2013-06-03 16:00:00,61.0,31.0,-100.00,North,-999,-999.0,-999.0,32,0.00,,,-99.99,,2013-06-03 23:00:00,
2013-06-03 16:52:00,61.0,31.0,-100.00,North,-999,-999.0,-999.0,32,0.00,,,-99.99,,2013-06-03 23:52:00,
2013-06-03 17:00:00,56.0,29.0,-100.00,North,-999,-999.0,-999.0,36,0.00,,,-99.99,,2013-06-04 00:00:00,
2013-06-03 17:52:00,56.0,29.0,-100.00,North,-999,-999.0,-999.0,36,0.00,,,-99.99,,2013-06-04 00:52:00,
2013-06-03 18:00:00,55.0,25.0,-100.00,North,-999,-999.0,-999.0,31,0.00,,,-99.99,,2013-06-04 01:00:00,
2013-06-03 18:52:00,55.0,25.0,-100.00,North,-999,-999.0,-999.0,31,0.00,,,-99.99,,2013-06-04 01:52:00,
2013-06-03 19:00:00,52.0,32.0,-100.00,North,-999,-999.0,-999.0,46,0.00,,,-99.99,,2013-06-04 02:00:00,
2013-06-03 19:52:00,52.0,32.0,-100.00,North,-999,-999.0,-999.0,46,0.00,,,-99.99,,2013-06-04 02:52:00,
2013-06-03 20:00:00,45.0,34.0,-100.00,North,-999,-999.0,-999.0,65,0.00,,,-99.99,,2013-06-04 03:00:00,
2013-06-03 20:53:00,45.0,34.0,-100.00,North,-999,-999.0,-999.0,65,0.00,,,-99.99,,2013-06-04 03:53:00,
2013-06-03 21:00:00,43.0,34.0,-100.00,North,-999,-999.0,-999.0,69,0.00,,,-99.99,,2013-06-04 04:00:00,
2013-06-03 21:53:00,43.0,34.0,-100.00,North,-999,-999.0,-999.0,69,0.00,,,-99.99,,2013-06-04 04:53:00,
2013-06-03 22:00:00,43.0,28.0,-100.00,North,-999,-999.0,-999.0,55,0.00,,,-99.99,,2013-06-04 05:00:00,
2013-06-03 22:52:00,43.0,28.0,-100.00,North,-999,-999.0,-999.0,55,0.00,,,-99.99,,2013-06-04 05:52:00,
2013-06-03 23:00:00,43.0,24.0,-100.00,North,-999,-999.0,-999.0,47,0.00,,,-99.99,,2013-06-04 06:00:00,
2013-06-03 23:52:00,43.0,24.0,-100.00,North,-999,-999.0,-999.0,47,0.00,,,-99.99,,2013-06-04 06:52:00,